Regional Weather Roundup
Issued by NWS

Home | Current Version | Previous Version | Text Only | Print | Product List | Glossary Off
Versions: 1 2 3 4 5 6 7 8 9 10 11 12 13 14 15 16 17 18 19 20 21 22 23 24 25 26 27 28 29 30 31 32 33 34 35 36 37 38 39 40 41 42 43 44 45 46 47 48 49 50

000
ASUS45 KABQ 261910
RWRNM
WEATHER ROUNDUP FOR NEW MEXICO
NATIONAL WEATHER SERVICE ALBUQUERQUE NM
1200 PM MST THU FEB 26 2015

NOTE: "FAIR" MEANS FEW OR NO CLOUDS BELOW 12,000 FEET AGL WITH NO
       SIGNIFICANT WEATHER OR OBSTRUCTIONS TO VISION.

      THIS PRODUCT IS RELEASED AS TWO VERSIONS.  ONE VERSION NEAR
      THE TOP OF THE HOUR CONTAINING PRELIMINARY DATA FROM ALBUQUERQUE
      AND OTHER STATIONS.  A FINAL VERSION WITH ADDITIONAL DATA IS
      ISSUED ABOUT 10 MINUTES AFTER THE HOUR.

NMZ501-503-504-510>518-262000-
NORTHWEST PLATEAU/NORTHCENTRAL MOUNTAINS

CITY           SKY/WX    TMP DP  RH WIND       PRES   REMARKS
FARMINGTON     SUNNY     39  24  55 E6        29.98F WCI  35
LOS ALAMOS     CLOUDY    24  20  87 S16       30.05F WCI  11
SANTA FE       FLURRIES  28  18  66 SE16G26   30.08F WCI  16
TAOS           CLOUDY    30  21  69 SW15      30.01F WCI  19
ANGEL FIRE     LGT SNOW  21  15  79 S17       29.99F WCI   6

$$
NMZ402-403-502-505>509-262000-
WESTCENTRAL MOUNTAINS/SOUTHWEST MOUNTAINS

CITY           SKY/WX    TMP DP  RH WIND       PRES   REMARKS
GALLUP         CLOUDY    40  26  57 NW5       29.98F
GRANTS         CLOUDY    42  16  35 SE5       30.01F
SILVER CITY    SUNNY     54  18  24 S16       30.03F

$$
NMZ407-409-411-412-262000-
SOUTHERN DESERTS

CITY           SKY/WX    TMP DP  RH WIND       PRES   REMARKS
LORDSBURG      FAIR      59  21  23 SE9G16    29.98F
DEMING         SUNNY     58  25  28 SE8       30.00F
LAS CRUCES     SUNNY     55  28  36 S14       30.03F
HOLLOMAN AFB   MOSUNNY   53  28  37 S15       30.03F
ALAMOGORDO     MOSUNNY   54  28  37 S16G31    30.04F
T OR C         PTSUNNY   50  25  37 E9        30.01F

$$
NMZ519>523-262000-
CENTRAL VALLEYS/CENTRAL HIGHLANDS

CITY           SKY/WX    TMP DP  RH WIND       PRES   REMARKS
ALBUQUERQUE    PTSUNNY   39  21  48 E25       30.05F WCI  28
DOUBLE EAGLE   PTSUNNY   39  21  48 SE12      30.06F WCI  32
MORIARTY ARPT  FLURRIES  28  22  79 SE14      30.12F WCI  17
CLINES CORNERS CLOUDY    21  19  92 SE13      30.06F WCI   9
BELEN          FAIR      44  24  45 SE14      30.04F
SOCORRO          N/A     48  25  41 E6        30.04F

$$
NMZ524>526-539-540-262000-
SOUTHCENTRAL MOUNTAINS

CITY           SKY/WX    TMP DP  RH WIND       PRES   REMARKS
RUIDOSO        CLOUDY    25  25 100 SE13      30.12F WCI  13

$$
NMZ527>531-262000-
NORTHEAST HIGHLANDS/NORTHEAST PLAINS

CITY           SKY/WX    TMP DP  RH WIND       PRES   REMARKS
LAS VEGAS      LGT SNOW  20  16  84 S21       30.10S FOG     WCI   4
RATON          CLOUDY    20  16  84 S16       30.08F WCI   6
CLAYTON        LGT SNOW  19  13  77 NE9       30.21F WCI   8

$$
NMZ532>537-262000-
EASTCENTRAL PLAINS

CITY           SKY/WX    TMP DP  RH WIND       PRES   REMARKS
TUCUMCARI      LGT SNOW  25  19  78 E14       30.25F WCI  13
CANNON AFB     PTSUNNY   22  17  82 NE15      30.23F WCI   9
CLOVIS AIRPORT CLOUDY    23  18  80 NE15      30.24S WCI  10

$$
NMZ028-029-538-262000-
SOUTHEAST PLAINS

CITY           SKY/WX    TMP DP  RH WIND       PRES   REMARKS
ROSWELL        CLOUDY    33  23  66 NE16      30.22F WCI  23
ARTESIA        CLOUDY    32  32 100 NE13      30.24S WCI  22
CARLSBAD       CLOUDY    36  31  82 E12       30.22S WCI  28
HOBBS          CLOUDY    28  23  80 N17       30.23R WCI  16


$$


USA.gov is the U.S. government's official web portal to all federal, state and local government web resources and services.